Back to catalog

GSTAR 2

AliveCommunicationsGEO
NORAD 16649·PAYLOAD·🇺🇸 United States

Launched Mar 28, 1986 from Guiana Space Centre

Loading…

TLE

FreshSource: Space-Track

Epoch: Sep 12, 2026, 22:34 UTC

1 16649U 86026A   26255.94083941  .00000051  00000-0  00000-0 0  9992
2 16649  14.1542 345.1926 0001634  37.6268 333.9217  0.99797250117523

Track GSTAR 2 in real time with AllMySat

Download on the App Store